Вернуться в каталог

STARLINK-4050

АктивенСвязьVLEO
NORAD 53274·PAYLOAD·🇺🇸 United States

Запущен Jul 24, 2022 с Cape Canaveral Space Force Station

Loading…

Ближайшие Пролёты (ближайшие 24 часа)

TLE

СвежийSource: CelesTrak SupGP

Эпоха: Sep 15, 2026, 01:51 UTC

1 53274C 22086AJ  26258.07756944 -.00034342  00000+0 -10423-2 0  2581
2 53274  53.1583  39.3497 0001255  90.8455 175.7387 15.33558377    13

Отслеживайте STARLINK-4050 в реальном времени с AllMySat

Download on the App Store